Home > Weather > Wegberg > Past weeks

Flag for Germany Past Weather in Wegberg, North Rhine-Westphalia, Germany — Yesterday and Last 2 Weeks

Now
72 °F

Fog.


Feels Like: 74 °F
Forecast: 64 / 80 °F
Wind: 7 mph from North

Location: Monchengladbach Airport

Current Time: Jul 23, 2016 at 1:18:39 PM

Latest Report: Jul 23, 2016 at 12:50 PM


Visibility: 2 mi

Pressure: 30.07 "Hg

Humidity: 73%

Dew Point: 63 °F

Location of WegbergLocation

Past Weather in Wegberg — Graph

°F

Wegberg Temperature Yesterday

Maximum temperature yesterday: 82 °F (at 3:20 PM)
Minimum temperature yesterday: 70 °F (at 7:50 AM)
Average temperature yesterday: 76 °F

High & Low Weather Summary for the Past Weeks

 TemperatureHumidityPressure
High95 °F (Jul 20, 4:50 PM)94% (Jul 17, 3:50 PM)30.30 "Hg (Jul 17, 3:50 PM)
Low54 °F (Jul 15, 6:50 AM)30% (Jul 20, 4:50 PM)29.77 "Hg (Jul 10, 5:50 PM)
Average73 °F60%30.04 "Hg
* Reported Jul 8 11:20 AM — Jul 23 11:50 AM, Wegberg, Weather by CustomWeather, © 2016

Note: Actual official high and low records may vary slightly from our data, if they occured in-between our weather recording intervals... More about our weather records

Advertising

Wegberg Weather History for the Previous 24 Hours

Scroll right to see more
 ConditionsComfort  
Time TempWeatherWind HumidityBarometerVisibility
11:50 AM
Sat, Jul 23
70 °FFog.7 mph78%30.07 "Hg2 mi
11:20 AM70 °FFog.8 mph83%30.07 "Hg2 mi
10:50 AM70 °FFog.8 mph83%30.07 "Hg2 mi
10:20 AM68 °FFog.7 mph88%30.07 "Hg2 mi
9:50 AM68 °FFog.8 mph88%30.04 "Hg2 mi
9:20 AM68 °FFog.7 mph88%30.04 "Hg3 mi
8:50 AM68 °FFog.8 mph88%30.04 "Hg3 mi
8:20 AM68 °FClear.8 mph88%30.04 "Hg4 mi
7:50 AM68 °FClear.6 mph88%30.04 "Hg4 mi
7:50 PM
Fri, Jul 22
79 °FPassing clouds.6 mph54%29.98 "HgN/A
7:20 PM81 °FPassing clouds.7 mph51%29.98 "HgN/A
6:50 PM81 °FPassing clouds.6 mph48%29.98 "HgN/A
6:20 PM81 °FPassing clouds.7 mph48%29.98 "HgN/A
5:50 PM81 °FPassing clouds.6 mph48%29.98 "HgN/A
5:20 PM81 °FPassing clouds.9 mph51%29.98 "HgN/A
4:50 PM81 °FPassing clouds.9 mph51%29.98 "HgN/A
4:20 PM81 °FPassing clouds.7 mph54%30.01 "HgN/A
3:50 PM81 °FPassing clouds.8 mph51%30.01 "HgN/A
3:20 PM82 °FPassing clouds.7 mph48%30.01 "HgN/A
2:50 PM81 °FPassing clouds.7 mph51%30.01 "HgN/A
2:20 PM79 °FPassing clouds.7 mph51%30.01 "HgN/A
1:50 PM79 °FPassing clouds.9 mph51%30.01 "HgN/A
1:20 PM75 °FPassing clouds.8 mph57%30.01 "HgN/A
Weather by CustomWeather, © 2016

See weather overviewHow to use our weather pages